This demonstration page uses our WeatherBlox Daily Observations layout. Learn more.

Left ArrowRight Arrow

34.16533, -84.80231

Hourly Observations for May 16, 2017

Temp ( °F °C ) Dew Point ( °F °C ) Humidity (%) Winds ( mph kmh ) Pressure ( in mb ) Visibility ( mi km ) Precip ( " mm )
12:53 am 00:53 Clear 62 16.7 62 16.7 100 100 Calm 29.99 1016 10 16 0.00 0.00
1:53 am 01:53 Clear 60 15.6 60 15.6 100 100 Calm 29.99 1016 10 16 0.00 0.00
2:53 am 02:53 Clear 59 15 59 15 100 100 Calm 29.98 1015 8 13 0.00 0.00
3:53 am 03:53 Clear 58 14.4 58 14.4 100 100 Calm 29.98 1015 8 13 0.00 0.00
4:53 am 04:53 Clear 58 14.4 58 14.4 100 100 Calm 30.00 1016 8 13 0.00 0.00
5:53 am 05:53 Clear 58 14.4 58 14.4 100 100 Calm 30.02 1017 8 13 0.00 0.00
6:53 am 06:53 Sunny 56 13.3 56 13.3 100 100 Calm 30.04 1017 8 13 0.00 0.00
7:53 am 07:53 Sunny 63 17.2 62 16.7 97 97 Calm 30.05 1018 10 16 0.00 0.00
8:53 am 08:53 Sunny 69 20.6 65 18.3 87 87 Calm 30.06 1018 10 16 0.00 0.00
9:53 am 09:53 Sunny 76 24.4 67 19.4 74 74 Calm 30.06 1018 10 16 0.00 0.00
10:53 am 10:53 Sunny 80 26.7 66 18.9 62 62 Calm 30.07 1018 10 16 0.00 0.00
11:53 am 11:53 Sunny 83 28.3 65 18.3 55 55 SSW 6 9 30.06 1018 10 16 0.00 0.00
12:53 pm 12:53 Sunny 85 29.4 63 17.2 48 48 Calm 30.05 1018 10 16 0.00 0.00
1:53 pm 13:53 Sunny 87 30.6 61 16.1 42 42 VRB 6 9 30.03 1017 10 16 0.00 0.00
2:53 pm 14:53 Mostly Sunny 87 30.6 60 15.6 40 40 Calm 30.02 1017 10 16 0.00 0.00
3:53 pm 15:53 Sunny 89 31.7 59 15 36 36 VRB 5 7 30.00 1016 10 16 0.00 0.00
4:53 pm 16:53 Sunny 88 31.1 59 15 38 38 S 8 13 29.99 1016 10 16 0.00 0.00
5:53 pm 17:53 Sunny 88 31.1 60 15.6 39 39 Calm 29.99 1016 10 16 0.00 0.00
6:53 pm 18:53 Sunny 86 30 61 16.1 43 43 S 5 7 29.98 1015 10 16 0.00 0.00
7:53 pm 19:53 Sunny 80 26.7 66 18.9 62 62 S 3 6 29.99 1016 10 16 0.00 0.00
8:53 pm 20:53 Clear 71 21.7 65 18.3 81 81 S 3 6 29.99 1016 10 16 0.00 0.00
9:53 pm 21:53 Clear 70 21.1 62 16.7 76 76 S 5 7 30.00 1016 10 16 0.00 0.00
10:53 pm 22:53 Clear 72 22.2 60 15.6 66 66 S 6 9 30.01 1016 10 16 0.00 0.00
11:53 pm 23:53 Clear 74 23.3 60 15.6 62 62 S 7 11 30.00 1016 10 16 0.00 0.00

Powered by AerisWeather